Time,TemperatureF,DewpointF,PressureIn,WindDirection,WindDirectionDegrees,WindSpeedMPH,WindSpeedGustMPH,Humidity,HourlyPrecipIn,Conditions,Clouds,dailyrainin,SoftwareType,DateUTC
2013-07-27 00:00:00,65.5,62.2,30.01,West,272,0.0,0.0,89,0.00,,,0.00,Wunderground v.1.15,2013-07-27 04:00:00,
2013-07-27 00:01:00,65.5,62.2,30.01,West,272,0.0,0.0,89,0.00,,,0.00,Wunderground v.1.15,2013-07-27 04:01:00,
2013-07-27 00:02:00,65.5,62.2,30.01,West,272,0.0,0.0,89,0.00,,,0.00,Wunderground v.1.15,2013-07-27 04:02:00,
2013-07-27 00:04:00,65.5,62.2,30.01,West,272,0.0,0.0,89,0.00,,,0.00,Wunderground v.1.15,2013-07-27 04:04:00,
2013-07-27 00:08:00,65.4,62.4,30.01,West,272,0.0,0.0,90,0.00,,,0.00,Wunderground v.1.15,2013-07-27 04:08:00,
2013-07-27 00:13:00,65.4,62.4,30.01,West,272,0.0,0.0,90,0.00,,,0.00,Wunderground v.1.15,2013-07-27 04:13:00,
2013-07-27 00:14:00,65.4,62.4,30.01,West,272,0.0,0.0,90,0.00,,,0.00,Wunderground v.1.15,2013-07-27 04:14:00,
2013-07-27 00:19:00,65.4,62.4,30.01,West,272,0.0,0.0,90,0.00,,,0.00,Wunderground v.1.15,2013-07-27 04:19:00,
2013-07-27 00:24:00,65.4,62.4,30.01,West,272,0.0,0.0,90,0.00,,,0.00,Wunderground v.1.15,2013-07-27 04:24:00,
2013-07-27 00:29:00,65.3,62.3,30.01,West,272,0.0,0.0,90,0.00,,,0.00,Wunderground v.1.15,2013-07-27 04:29:00,
2013-07-27 00:35:00,65.3,62.3,30.01,West,272,0.0,0.0,90,0.00,,,0.00,Wunderground v.1.15,2013-07-27 04:35:00,
2013-07-27 00:40:00,65.3,62.3,30.01,West,272,0.0,0.0,90,0.00,,,0.00,Wunderground v.1.15,2013-07-27 04:40:00,
2013-07-27 00:45:00,65.2,63.0,30.01,West,272,0.0,0.0,91,0.00,,,0.00,weatherlink.com 1.10,2013-07-27 04:45:00,
2013-07-27 00:50:00,65.2,62.5,30.00,West,272,0.0,0.0,91,0.00,,,0.00,Wunderground v.1.15,2013-07-27 04:50:00,
2013-07-27 00:56:00,65.2,62.5,30.00,West,272,0.0,0.0,91,0.00,,,0.00,Wunderground v.1.15,2013-07-27 04:56:00,
2013-07-27 01:01:00,65.2,62.2,30.00,West,272,0.0,0.0,90,0.00,,,0.00,Wunderground v.1.15,2013-07-27 05:01:00,
2013-07-27 01:06:00,65.2,62.2,30.01,West,273,0.0,0.0,90,0.00,,,0.00,Wunderground v.1.15,2013-07-27 05:06:00,
2013-07-27 01:12:00,65.2,62.2,30.00,West,273,0.0,0.0,90,0.00,,,0.00,Wunderground v.1.15,2013-07-27 05:12:00,
2013-07-27 01:17:00,65.3,62.3,30.00,West,273,0.0,0.0,90,0.00,,,0.00,Wunderground v.1.15,2013-07-27 05:17:00,
2013-07-27 01:22:00,65.2,62.2,30.00,West,273,0.0,0.0,90,0.00,,,0.00,Wunderground v.1.15,2013-07-27 05:22:00,
2013-07-27 01:28:00,65.2,62.0,30.00,West,273,0.0,1.0,90,0.00,,,0.00,weatherlink.com 1.10,2013-07-27 05:28:00,
2013-07-27 01:33:00,65.2,62.2,30.00,West,273,0.0,0.0,90,0.00,,,0.00,Wunderground v.1.15,2013-07-27 05:33:00,
2013-07-27 01:38:00,65.1,62.1,30.00,West,273,0.0,1.0,90,0.00,,,0.00,Wunderground v.1.15,2013-07-27 05:38:00,
2013-07-27 01:43:00,65.1,62.1,30.00,West,273,0.0,0.0,90,0.00,,,0.00,Wunderground v.1.15,2013-07-27 05:43:00,
2013-07-27 01:49:00,65.0,62.0,30.00,West,273,0.0,0.0,90,0.00,,,0.00,Wunderground v.1.15,2013-07-27 05:49:00,
2013-07-27 01:55:00,64.8,61.8,29.99,West,273,0.0,0.0,90,0.00,,,0.00,Wunderground v.1.15,2013-07-27 05:55:00,
2013-07-27 02:00:00,64.7,62.0,29.99,West,273,0.0,0.0,91,0.00,,,0.00,Wunderground v.1.15,2013-07-27 06:00:00,
2013-07-27 02:06:00,64.5,61.5,29.99,West,273,0.0,0.0,90,0.00,,,0.00,Wunderground v.1.15,2013-07-27 06:06:00,
2013-07-27 02:11:00,64.2,61.5,29.99,West,273,0.0,0.0,91,0.00,,,0.00,Wunderground v.1.15,2013-07-27 06:11:00,
2013-07-27 02:16:00,64.2,61.8,29.99,West,273,0.0,1.0,92,0.00,,,0.00,Wunderground v.1.15,2013-07-27 06:16:00,
2013-07-27 02:22:00,64.3,61.9,29.99,West,273,0.0,1.0,92,0.00,,,0.00,Wunderground v.1.15,2013-07-27 06:22:00,
2013-07-27 02:27:00,64.4,62.0,29.99,West,273,0.0,1.0,92,0.00,,,0.00,Wunderground v.1.15,2013-07-27 06:27:00,
2013-07-27 02:32:00,64.4,62.0,29.98,West,273,0.0,0.0,92,0.00,,,0.00,Wunderground v.1.15,2013-07-27 06:32:00,
2013-07-27 02:37:00,64.4,61.7,29.98,West,273,0.0,1.0,91,0.00,,,0.00,Wunderground v.1.15,2013-07-27 06:37:00,
2013-07-27 02:42:00,64.5,61.8,29.98,West,273,0.0,0.0,91,0.00,,,0.00,Wunderground v.1.15,2013-07-27 06:42:00,
2013-07-27 02:48:00,64.4,61.7,29.98,West,273,0.0,0.0,91,0.00,,,0.00,Wunderground v.1.15,2013-07-27 06:48:00,
2013-07-27 02:53:00,64.3,61.6,29.98,West,273,0.0,0.0,91,0.00,,,0.00,Wunderground v.1.15,2013-07-27 06:53:00,
2013-07-27 02:58:00,64.1,61.4,29.98,West,273,0.0,0.0,91,0.00,,,0.00,Wunderground v.1.15,2013-07-27 06:58:00,
2013-07-27 03:04:00,64.0,61.3,29.98,West,273,0.0,0.0,91,0.00,,,0.00,Wunderground v.1.15,2013-07-27 07:04:00,
2013-07-27 03:10:00,63.9,61.5,29.98,West,273,0.0,0.0,92,0.00,,,0.00,Wunderground v.1.15,2013-07-27 07:10:00,
2013-07-27 03:15:00,63.9,62.0,29.98,West,273,0.0,0.0,92,0.00,,,0.00,weatherlink.com 1.10,2013-07-27 07:15:00,
2013-07-27 03:20:00,63.8,61.4,29.98,West,273,0.0,0.0,92,0.00,,,0.00,Wunderground v.1.15,2013-07-27 07:20:00,
2013-07-27 03:26:00,63.6,61.2,29.98,West,273,0.0,0.0,92,0.00,,,0.00,Wunderground v.1.15,2013-07-27 07:26:00,
2013-07-27 03:33:00,63.5,61.0,29.98,West,273,0.0,0.0,92,0.00,,,0.00,weatherlink.com 1.10,2013-07-27 07:33:00,
2013-07-27 03:38:00,63.3,60.9,29.98,West,273,0.0,1.0,92,0.00,,,0.00,Wunderground v.1.15,2013-07-27 07:38:00,
2013-07-27 03:44:00,63.2,61.1,29.98,West,273,0.0,0.0,93,0.00,,,0.00,Wunderground v.1.15,2013-07-27 07:44:00,
2013-07-27 03:49:00,63.1,61.0,29.98,West,273,0.0,0.0,93,0.00,,,0.00,Wunderground v.1.15,2013-07-27 07:49:00,
2013-07-27 03:54:00,63.0,60.9,29.97,West,273,0.0,0.0,93,0.00,,,0.00,Wunderground v.1.15,2013-07-27 07:54:00,
2013-07-27 04:00:00,62.9,61.0,29.97,West,273,0.0,1.0,93,0.00,,,0.00,weatherlink.com 1.10,2013-07-27 08:00:00,
2013-07-27 04:05:00,62.8,60.7,29.98,West,273,0.0,0.0,93,0.00,,,0.00,Wunderground v.1.15,2013-07-27 08:05:00,
2013-07-27 04:11:00,62.7,60.6,29.97,West,273,0.0,0.0,93,0.00,,,0.00,Wunderground v.1.15,2013-07-27 08:11:00,
2013-07-27 04:16:00,62.5,60.4,29.97,West,273,0.0,0.0,93,0.00,,,0.00,Wunderground v.1.15,2013-07-27 08:16:00,
2013-07-27 04:22:00,62.4,60.3,29.97,West,273,0.0,0.0,93,0.00,,,0.00,Wunderground v.1.15,2013-07-27 08:22:00,
2013-07-27 04:27:00,62.2,60.2,29.97,West,273,0.0,0.0,93,0.00,,,0.00,Wunderground v.1.15,2013-07-27 08:27:00,
2013-07-27 04:32:00,62.1,60.4,29.97,West,273,0.0,0.0,94,0.00,,,0.00,Wunderground v.1.15,2013-07-27 08:32:00,
2013-07-27 04:37:00,62.0,60.3,29.97,West,273,0.0,0.0,94,0.00,,,0.00,Wunderground v.1.15,2013-07-27 08:37:00,
2013-07-27 04:43:00,62.1,60.7,29.97,West,273,0.0,0.0,95,0.00,,,0.00,Wunderground v.1.15,2013-07-27 08:43:00,
2013-07-27 04:49:00,62.2,60.8,29.97,West,273,0.0,0.0,95,0.00,,,0.00,Wunderground v.1.15,2013-07-27 08:49:00,
2013-07-27 04:54:00,62.3,60.8,29.97,West,273,0.0,0.0,95,0.00,,,0.00,Wunderground v.1.15,2013-07-27 08:54:00,
2013-07-27 05:00:00,62.5,61.3,29.96,West,273,0.0,0.0,96,0.00,,,0.00,Wunderground v.1.15,2013-07-27 09:00:00,
2013-07-27 05:06:00,62.6,61.1,29.96,West,273,0.0,0.0,95,0.00,,,0.00,Wunderground v.1.15,2013-07-27 09:06:00,
2013-07-27 05:12:00,62.5,61.0,29.96,West,273,0.0,0.0,95,0.00,,,0.00,Wunderground v.1.15,2013-07-27 09:12:00,
2013-07-27 05:17:00,62.5,61.0,29.96,West,273,0.0,0.0,95,0.00,,,0.00,Wunderground v.1.15,2013-07-27 09:17:00,
2013-07-27 05:22:00,62.5,61.0,29.96,West,273,0.0,0.0,95,0.00,,,0.00,Wunderground v.1.15,2013-07-27 09:22:00,
2013-07-27 05:27:00,62.5,61.0,29.96,West,273,0.0,0.0,95,0.00,,,0.00,Wunderground v.1.15,2013-07-27 09:27:00,
2013-07-27 05:33:00,62.4,60.9,29.96,West,273,0.0,0.0,95,0.00,,,0.00,Wunderground v.1.15,2013-07-27 09:33:00,
2013-07-27 05:38:00,62.3,60.8,29.96,West,273,0.0,0.0,95,0.00,,,0.00,Wunderground v.1.15,2013-07-27 09:38:00,
2013-07-27 05:43:00,62.3,60.8,29.96,West,273,0.0,0.0,95,0.00,,,0.00,Wunderground v.1.15,2013-07-27 09:43:00,
2013-07-27 05:48:00,62.3,60.8,29.96,West,273,0.0,0.0,95,0.00,,,0.00,Wunderground v.1.15,2013-07-27 09:48:00,
2013-07-27 05:54:00,62.4,60.9,29.96,West,273,0.0,0.0,95,0.00,,,0.00,Wunderground v.1.15,2013-07-27 09:54:00,
2013-07-27 06:00:00,62.4,60.9,29.96,West,273,0.0,0.0,95,0.00,,,0.00,Wunderground v.1.15,2013-07-27 10:00:00,
2013-07-27 06:06:00,62.4,60.9,29.96,West,273,0.0,0.0,95,0.00,,,0.00,Wunderground v.1.15,2013-07-27 10:06:00,
2013-07-27 06:12:00,62.3,60.8,29.96,West,273,0.0,0.0,95,0.00,,,0.00,Wunderground v.1.15,2013-07-27 10:12:00,
2013-07-27 06:18:00,62.3,60.8,29.97,West,273,0.0,0.0,95,0.00,,,0.00,Wunderground v.1.15,2013-07-27 10:18:00,
2013-07-27 06:24:00,62.4,61.2,29.97,West,273,0.0,0.0,96,0.00,,,0.00,Wunderground v.1.15,2013-07-27 10:24:00,
2013-07-27 06:29:00,62.7,61.5,29.97,West,273,0.0,1.0,96,0.00,,,0.00,Wunderground v.1.15,2013-07-27 10:29:00,
2013-07-27 06:34:00,63.0,61.8,29.96,West,273,0.0,1.0,96,0.00,,,0.00,Wunderground v.1.15,2013-07-27 10:34:00,
2013-07-27 06:39:00,63.2,62.0,29.96,West,273,0.0,1.0,96,0.00,,,0.00,Wunderground v.1.15,2013-07-27 10:39:00,
2013-07-27 06:44:00,63.5,62.3,29.96,West,273,0.0,0.0,96,0.00,,,0.00,Wunderground v.1.15,2013-07-27 10:44:00,
2013-07-27 06:49:00,63.6,62.4,29.96,West,273,0.0,0.0,96,0.00,,,0.00,Wunderground v.1.15,2013-07-27 10:49:00,
2013-07-27 06:54:00,63.7,62.5,29.96,West,273,0.0,0.0,96,0.00,,,0.00,Wunderground v.1.15,2013-07-27 10:54:00,
2013-07-27 07:00:00,63.8,62.3,29.96,West,273,0.0,0.0,95,0.00,,,0.00,Wunderground v.1.15,2013-07-27 11:00:00,
2013-07-27 07:06:00,63.8,62.3,29.97,West,273,0.0,0.0,95,0.00,,,0.00,Wunderground v.1.15,2013-07-27 11:06:00,
2013-07-27 07:11:00,63.9,62.4,29.96,West,273,0.0,0.0,95,0.00,,,0.00,Wunderground v.1.15,2013-07-27 11:11:00,
2013-07-27 07:17:00,64.1,62.6,29.96,West,273,0.0,0.0,95,0.00,,,0.00,Wunderground v.1.15,2013-07-27 11:17:00,
2013-07-27 07:22:00,64.4,62.9,29.96,West,273,0.0,0.0,95,0.00,,,0.00,Wunderground v.1.15,2013-07-27 11:22:00,
2013-07-27 07:28:00,64.7,63.2,29.96,West,273,0.0,0.0,95,0.00,,,0.00,Wunderground v.1.15,2013-07-27 11:28:00,
2013-07-27 07:33:00,64.8,63.0,29.97,West,273,0.0,0.0,94,0.00,,,0.00,Wunderground v.1.15,2013-07-27 11:33:00,
2013-07-27 07:39:00,64.9,63.1,29.97,West,273,0.0,0.0,94,0.00,,,0.00,Wunderground v.1.15,2013-07-27 11:39:00,
2013-07-27 07:44:00,65.0,63.2,29.97,West,273,0.0,0.0,94,0.00,,,0.00,Wunderground v.1.15,2013-07-27 11:44:00,
2013-07-27 07:49:00,65.2,63.4,29.97,West,273,0.0,0.0,94,0.00,,,0.00,Wunderground v.1.15,2013-07-27 11:49:00,
2013-07-27 07:54:00,65.5,63.7,29.97,West,273,0.0,0.0,94,0.00,,,0.00,Wunderground v.1.15,2013-07-27 11:54:00,
2013-07-27 07:59:00,65.9,64.1,29.97,West,273,0.0,1.0,94,0.00,,,0.00,Wunderground v.1.15,2013-07-27 11:59:00,
2013-07-27 08:04:00,66.4,64.6,29.97,West,273,0.0,0.0,94,0.00,,,0.00,Wunderground v.1.15,2013-07-27 12:04:00,
2013-07-27 08:10:00,66.9,65.1,29.98,West,273,0.0,0.0,94,0.00,,,0.00,Wunderground v.1.15,2013-07-27 12:10:00,
2013-07-27 08:15:00,67.5,65.7,29.98,West,273,0.0,0.0,94,0.00,,,0.00,Wunderground v.1.15,2013-07-27 12:15:00,
2013-07-27 08:20:00,68.3,66.2,29.98,ESE,111,0.0,1.0,93,0.00,,,0.00,Wunderground v.1.15,2013-07-27 12:20:00,
2013-07-27 08:25:00,68.9,66.5,29.98,ESE,112,0.0,1.0,92,0.00,,,0.00,Wunderground v.1.15,2013-07-27 12:25:00,
2013-07-27 08:31:00,69.4,66.7,29.98,ESE,112,0.0,1.0,91,0.00,,,0.00,Wunderground v.1.15,2013-07-27 12:31:00,
2013-07-27 08:36:00,69.5,66.1,29.98,ESE,112,0.0,1.0,89,0.00,,,0.00,Wunderground v.1.15,2013-07-27 12:36:00,
2013-07-27 08:42:00,69.6,66.2,29.98,ESE,112,0.0,0.0,89,0.00,,,0.00,Wunderground v.1.15,2013-07-27 12:42:00,
2013-07-27 08:47:00,69.6,66.2,29.98,ESE,109,0.0,1.0,89,0.00,,,0.00,Wunderground v.1.15,2013-07-27 12:47:00,
2013-07-27 08:52:00,69.6,66.2,29.98,ESE,109,0.0,0.0,89,0.00,,,0.00,Wunderground v.1.15,2013-07-27 12:52:00,
2013-07-27 08:58:00,69.7,66.6,29.98,ESE,109,0.0,0.0,90,0.00,,,0.00,Wunderground v.1.15,2013-07-27 12:58:00,
2013-07-27 09:04:00,69.7,66.3,29.98,ESE,109,0.0,0.0,89,0.00,,,0.00,Wunderground v.1.15,2013-07-27 13:04:00,
2013-07-27 09:10:00,69.8,66.4,29.98,ESE,109,0.0,0.0,89,0.00,,,0.00,Wunderground v.1.15,2013-07-27 13:10:00,
2013-07-27 09:15:00,69.9,66.8,29.98,ESE,109,0.0,0.0,90,0.00,,,0.00,Wunderground v.1.15,2013-07-27 13:15:00,
2013-07-27 09:21:00,69.8,66.7,29.98,ESE,109,0.0,0.0,90,0.00,,,0.00,Wunderground v.1.15,2013-07-27 13:21:00,
2013-07-27 09:27:00,69.8,66.7,29.97,ESE,109,0.0,0.0,90,0.00,,,0.00,Wunderground v.1.15,2013-07-27 13:27:00,
2013-07-27 09:32:00,69.8,66.7,29.98,ESE,109,0.0,0.0,90,0.00,,,0.00,Wunderground v.1.15,2013-07-27 13:32:00,
2013-07-27 09:38:00,70.0,66.6,29.98,ESE,109,0.0,1.0,89,0.00,,,0.00,Wunderground v.1.15,2013-07-27 13:38:00,
2013-07-27 09:44:00,70.1,66.7,29.98,ESE,109,0.0,0.0,89,0.00,,,0.00,Wunderground v.1.15,2013-07-27 13:44:00,
2013-07-27 09:49:00,70.3,66.9,29.98,ESE,109,0.0,1.0,89,0.00,,,0.00,Wunderground v.1.15,2013-07-27 13:49:00,
2013-07-27 09:54:00,70.5,66.8,29.98,ESE,109,0.0,0.0,88,0.00,,,0.00,Wunderground v.1.15,2013-07-27 13:54:00,
2013-07-27 09:59:00,70.7,67.0,29.98,ESE,109,0.0,1.0,88,0.00,,,0.00,Wunderground v.1.15,2013-07-27 13:59:00,
2013-07-27 10:04:00,70.9,67.2,29.98,ESE,113,0.0,1.0,88,0.00,,,0.00,Wunderground v.1.15,2013-07-27 14:04:00,
2013-07-27 10:10:00,71.1,67.0,29.98,ESE,113,0.0,0.0,87,0.00,,,0.00,Wunderground v.1.15,2013-07-27 14:10:00,
2013-07-27 10:16:00,71.3,67.2,29.98,ESE,113,0.0,0.0,87,0.00,,,0.00,Wunderground v.1.15,2013-07-27 14:16:00,
2013-07-27 10:21:00,71.4,67.0,29.98,ESE,113,0.0,0.0,86,0.00,,,0.00,Wunderground v.1.15,2013-07-27 14:21:00,
2013-07-27 10:26:00,71.6,67.5,29.98,ESE,113,0.0,1.0,87,0.00,,,0.00,Wunderground v.1.15,2013-07-27 14:26:00,
2013-07-27 10:32:00,71.8,67.4,29.98,ESE,113,0.0,1.0,86,0.00,,,0.00,Wunderground v.1.15,2013-07-27 14:32:00,
2013-07-27 10:37:00,71.9,67.5,29.98,ESE,113,0.0,1.0,86,0.00,,,0.00,Wunderground v.1.15,2013-07-27 14:37:00,
2013-07-27 10:42:00,72.0,67.2,29.97,ESE,113,0.0,1.0,85,0.00,,,0.00,Wunderground v.1.15,2013-07-27 14:42:00,
2013-07-27 10:47:00,72.1,67.3,29.97,ESE,109,0.0,2.0,85,0.00,,,0.00,Wunderground v.1.15,2013-07-27 14:47:00,
2013-07-27 10:53:00,72.4,68.3,29.97,ESE,109,0.0,0.0,87,0.00,,,0.00,Wunderground v.1.15,2013-07-27 14:53:00,
2013-07-27 10:58:00,72.6,68.2,29.97,ESE,109,0.0,1.0,86,0.00,,,0.00,Wunderground v.1.15,2013-07-27 14:58:00,
2013-07-27 11:04:00,73.1,68.0,29.96,ESE,109,0.0,0.0,84,0.00,,,0.00,Wunderground v.1.15,2013-07-27 15:04:00,
2013-07-27 11:10:00,73.5,68.4,29.96,ESE,109,0.0,1.0,84,0.00,,,0.00,Wunderground v.1.15,2013-07-27 15:10:00,
2013-07-27 11:15:00,73.7,68.6,29.96,ESE,109,0.0,1.0,84,0.00,,,0.00,Wunderground v.1.15,2013-07-27 15:15:00,
2013-07-27 11:20:00,73.8,68.7,29.96,ESE,109,0.0,0.0,84,0.00,,,0.00,Wunderground v.1.15,2013-07-27 15:20:00,
2013-07-27 11:26:00,73.8,68.7,29.96,ESE,109,0.0,0.0,84,0.00,,,0.00,Wunderground v.1.15,2013-07-27 15:26:00,
2013-07-27 11:31:00,74.0,68.9,29.96,ESE,109,0.0,2.0,84,0.00,,,0.00,Wunderground v.1.15,2013-07-27 15:31:00,
2013-07-27 11:36:00,74.0,68.2,29.96,SE,139,0.0,2.0,82,0.00,,,0.00,Wunderground v.1.15,2013-07-27 15:36:00,
2013-07-27 11:41:00,74.2,68.3,29.96,SE,139,0.0,0.0,82,0.00,,,0.00,Wunderground v.1.15,2013-07-27 15:41:00,
2013-07-27 11:47:00,74.5,69.0,29.96,SE,139,0.0,0.0,83,0.00,,,0.00,Wunderground v.1.15,2013-07-27 15:47:00,
2013-07-27 11:52:00,74.9,69.0,29.96,SE,139,0.0,1.0,82,0.00,,,0.00,Wunderground v.1.15,2013-07-27 15:52:00,
2013-07-27 11:58:00,75.1,68.9,29.95,SE,139,0.0,1.0,81,0.00,,,0.00,Wunderground v.1.15,2013-07-27 15:58:00,
2013-07-27 12:04:00,75.3,69.4,29.95,SE,139,0.0,0.0,82,0.00,,,0.00,Wunderground v.1.15,2013-07-27 16:04:00,
2013-07-27 12:10:00,75.4,69.9,29.95,SE,139,0.0,0.0,83,0.00,,,0.00,Wunderground v.1.15,2013-07-27 16:10:00,
2013-07-27 12:15:00,75.3,68.7,29.96,SE,139,0.0,0.0,80,0.00,,,0.00,Wunderground v.1.15,2013-07-27 16:15:00,
2013-07-27 12:20:00,75.3,69.4,29.95,SE,139,0.0,0.0,82,0.00,,,0.00,Wunderground v.1.15,2013-07-27 16:20:00,
2013-07-27 12:25:00,75.4,69.2,29.95,East,99,0.0,1.0,81,0.00,,,0.00,Wunderground v.1.15,2013-07-27 16:25:00,
2013-07-27 12:31:00,75.3,69.1,29.95,East,99,0.0,0.0,81,0.00,,,0.00,Wunderground v.1.15,2013-07-27 16:31:00,
2013-07-27 12:36:00,75.3,69.1,29.95,East,99,0.0,0.0,81,0.00,,,0.00,Wunderground v.1.15,2013-07-27 16:36:00,
2013-07-27 12:42:00,75.2,69.0,29.95,East,99,0.0,1.0,82,0.00,,,0.00,weatherlink.com 1.10,2013-07-27 16:42:00,
2013-07-27 12:47:00,75.1,69.6,29.95,East,99,0.0,0.0,83,0.00,,,0.00,Wunderground v.1.15,2013-07-27 16:47:00,
2013-07-27 12:52:00,75.1,69.6,29.95,East,99,0.0,0.0,83,0.00,,,0.00,Wunderground v.1.15,2013-07-27 16:52:00,
2013-07-27 12:57:00,75.1,69.2,29.95,East,99,0.0,0.0,82,0.00,,,0.00,Wunderground v.1.15,2013-07-27 16:57:00,
2013-07-27 13:04:00,75.0,69.5,29.95,East,99,0.0,1.0,83,0.00,,,0.00,Wunderground v.1.15,2013-07-27 17:04:00,
2013-07-27 13:10:00,74.9,69.7,29.96,East,99,0.0,0.0,84,0.00,,,0.00,Wunderground v.1.15,2013-07-27 17:10:00,
2013-07-27 13:15:00,74.7,69.5,29.95,East,99,0.0,0.0,84,0.00,,,0.00,Wunderground v.1.15,2013-07-27 17:15:00,
2013-07-27 13:21:00,74.5,69.3,29.95,East,99,0.0,1.0,84,0.00,,,0.00,Wunderground v.1.15,2013-07-27 17:21:00,
2013-07-27 13:27:00,74.2,69.7,29.95,WNW,284,0.0,2.0,86,0.00,,,0.00,Wunderground v.1.15,2013-07-27 17:27:00,
2013-07-27 13:32:00,74.2,69.4,29.95,WNW,284,0.0,1.0,85,0.00,,,0.00,Wunderground v.1.15,2013-07-27 17:32:00,
2013-07-27 13:38:00,74.3,70.0,29.94,WNW,284,0.0,1.0,87,0.00,,,0.00,weatherlink.com 1.10,2013-07-27 17:38:00,
2013-07-27 13:43:00,74.4,69.9,29.94,WNW,284,0.0,1.0,86,0.00,,,0.00,Wunderground v.1.15,2013-07-27 17:43:00,
2013-07-27 13:48:00,74.6,69.8,29.94,NNW,329,0.0,1.0,85,0.00,,,0.00,Wunderground v.1.15,2013-07-27 17:48:00,
2013-07-27 13:54:00,75.0,70.9,29.93,NNW,329,0.0,1.0,87,0.00,,,0.00,Wunderground v.1.15,2013-07-27 17:54:00,
2013-07-27 13:59:00,75.0,69.1,29.93,NNW,347,1.0,2.0,82,0.00,,,0.00,Wunderground v.1.15,2013-07-27 17:59:00,
2013-07-27 14:04:00,75.1,69.6,29.93,NNW,347,1.0,2.0,83,0.00,,,0.00,Wunderground v.1.15,2013-07-27 18:04:00,
2013-07-27 14:10:00,75.1,68.9,29.93,East,95,1.0,2.0,81,0.00,,,0.00,Wunderground v.1.15,2013-07-27 18:10:00,
2013-07-27 14:15:00,74.8,68.9,29.92,WNW,287,1.0,2.0,82,0.00,,,0.00,Wunderground v.1.15,2013-07-27 18:15:00,
2013-07-27 14:20:00,74.6,68.7,29.92,NE,43,1.0,1.0,82,0.00,,,0.00,Wunderground v.1.15,2013-07-27 18:20:00,
2013-07-27 14:26:00,74.5,68.6,29.92,NE,43,0.0,1.0,82,0.00,,,0.00,Wunderground v.1.15,2013-07-27 18:26:00,
2013-07-27 14:31:00,74.6,69.4,29.92,NE,43,0.0,1.0,84,0.00,,,0.00,Wunderground v.1.15,2013-07-27 18:31:00,
2013-07-27 14:36:00,75.1,69.6,29.92,NE,43,0.0,1.0,83,0.00,,,0.00,Wunderground v.1.15,2013-07-27 18:36:00,
2013-07-27 14:41:00,75.7,70.2,29.92,NE,43,0.0,0.0,83,0.00,,,0.00,Wunderground v.1.15,2013-07-27 18:41:00,
2013-07-27 14:47:00,76.3,70.8,29.92,NE,37,1.0,1.0,83,0.00,,,0.00,Wunderground v.1.15,2013-07-27 18:47:00,
2013-07-27 14:52:00,76.7,70.4,29.92,South,191,1.0,1.0,81,0.00,,,0.00,Wunderground v.1.15,2013-07-27 18:52:00,
2013-07-27 14:58:00,77.2,70.9,29.92,South,191,1.0,2.0,81,0.00,,,0.00,Wunderground v.1.15,2013-07-27 18:58:00,
2013-07-27 15:04:00,77.6,70.9,29.92,South,178,1.0,2.0,80,0.00,,,0.00,Wunderground v.1.15,2013-07-27 19:04:00,
2013-07-27 15:10:00,78.0,71.7,29.92,South,178,1.0,1.0,81,0.00,,,0.00,Wunderground v.1.15,2013-07-27 19:10:00,
2013-07-27 15:16:00,78.2,70.8,29.91,North,10,1.0,2.0,78,0.00,,,0.00,Wunderground v.1.15,2013-07-27 19:16:00,
2013-07-27 15:21:00,78.4,71.0,29.91,NE,35,1.0,1.0,78,0.00,,,0.00,Wunderground v.1.15,2013-07-27 19:21:00,
2013-07-27 15:26:00,78.5,69.9,29.91,SSE,159,1.0,3.0,75,0.00,,,0.00,Wunderground v.1.15,2013-07-27 19:26:00,
2013-07-27 15:31:00,78.6,70.4,29.91,South,183,1.0,1.0,76,0.00,,,0.00,Wunderground v.1.15,2013-07-27 19:31:00,
2013-07-27 15:37:00,78.5,70.3,29.91,North,355,1.0,1.0,76,0.00,,,0.00,Wunderground v.1.15,2013-07-27 19:37:00,
2013-07-27 15:43:00,78.6,70.8,29.91,South,177,1.0,1.0,77,0.00,,,0.00,Wunderground v.1.15,2013-07-27 19:43:00,
2013-07-27 15:48:00,78.6,69.2,29.90,North,5,1.0,1.0,73,0.00,,,0.00,Wunderground v.1.15,2013-07-27 19:48:00,
2013-07-27 15:53:00,78.5,70.3,29.90,North,355,1.0,3.0,76,0.00,,,0.00,Wunderground v.1.15,2013-07-27 19:53:00,
2013-07-27 15:59:00,78.3,69.3,29.90,NE,35,1.0,3.0,74,0.00,,,0.00,Wunderground v.1.15,2013-07-27 19:59:00,
2013-07-27 16:04:00,78.2,70.0,29.89,NE,38,1.0,1.0,76,0.00,,,0.00,Wunderground v.1.15,2013-07-27 20:04:00,
2013-07-27 16:10:00,77.8,70.0,29.89,ESE,123,0.0,2.0,76,0.00,,,0.00,weatherlink.com 1.10,2013-07-27 20:10:00,
2013-07-27 16:15:00,77.4,69.6,29.90,North,9,0.0,1.0,77,1.08,,,0.03,Wunderground v.1.15,2013-07-27 20:15:00,
2013-07-27 16:21:00,75.8,69.9,29.91,ESE,103,1.0,1.0,82,3.89,,,0.28,Wunderground v.1.15,2013-07-27 20:21:00,
2013-07-27 16:26:00,73.9,69.4,29.90,ESE,104,1.0,1.0,86,0.61,,,0.36,Wunderground v.1.15,2013-07-27 20:26:00,
2013-07-27 16:31:00,72.7,68.6,29.90,ESE,103,1.0,1.0,87,0.11,,,0.37,Wunderground v.1.15,2013-07-27 20:31:00,
2013-07-27 16:36:00,71.9,68.5,29.90,ESE,103,0.0,1.0,89,0.11,,,0.37,Wunderground v.1.15,2013-07-27 20:36:00,
2013-07-27 16:41:00,71.2,68.1,29.90,ESE,103,0.0,0.0,90,0.06,,,0.37,Wunderground v.1.15,2013-07-27 20:41:00,
2013-07-27 16:47:00,70.7,67.9,29.90,ESE,103,0.0,1.0,91,0.96,,,0.43,Wunderground v.1.15,2013-07-27 20:47:00,
2013-07-27 16:53:00,70.3,67.9,29.90,ESE,103,0.0,0.0,92,0.15,,,0.44,Wunderground v.1.15,2013-07-27 20:53:00,
2013-07-27 16:58:00,70.2,68.4,29.89,East,88,0.0,1.0,94,0.07,,,0.44,Wunderground v.1.15,2013-07-27 20:58:00,
2013-07-27 17:04:00,70.3,68.8,29.89,East,88,0.0,1.0,95,0.04,,,0.44,Wunderground v.1.15,2013-07-27 21:04:00,
2013-07-27 17:10:00,70.4,69.0,29.89,East,88,1.0,2.0,95,0.45,,,0.45,weatherlink.com 1.10,2013-07-27 21:10:00,
2013-07-27 17:16:00,70.3,68.8,29.90,East,88,0.0,1.0,95,0.00,,,0.45,Wunderground v.1.15,2013-07-27 21:16:00,
2013-07-27 17:21:00,70.0,68.2,29.89,NE,38,0.0,0.0,94,0.00,,,0.45,Wunderground v.1.15,2013-07-27 21:21:00,
2013-07-27 17:27:00,69.7,68.0,29.89,ENE,78,0.0,2.0,93,0.09,,,0.45,weatherlink.com 1.10,2013-07-27 21:27:00,
2013-07-27 17:32:00,69.3,67.2,29.89,North,9,1.0,2.0,93,0.00,,,0.45,Wunderground v.1.15,2013-07-27 21:32:00,
2013-07-27 17:37:00,69.1,66.7,29.89,NNW,327,1.0,2.0,92,0.00,,,0.45,Wunderground v.1.15,2013-07-27 21:37:00,
2013-07-27 17:43:00,68.8,66.4,29.89,East,85,1.0,2.0,92,0.00,,,0.45,Wunderground v.1.15,2013-07-27 21:43:00,
2013-07-27 17:48:00,68.6,66.5,29.89,NE,45,1.0,3.0,93,0.00,,,0.45,Wunderground v.1.15,2013-07-27 21:48:00,
2013-07-27 17:53:00,68.6,66.8,29.89,NE,45,1.0,1.0,94,0.00,,,0.45,Wunderground v.1.15,2013-07-27 21:53:00,
2013-07-27 17:58:00,68.6,66.8,29.89,NE,45,1.0,1.0,94,0.00,,,0.45,Wunderground v.1.15,2013-07-27 21:58:00,
2013-07-27 18:04:00,68.6,67.1,29.89,NE,45,0.0,0.0,95,0.00,,,0.45,Wunderground v.1.15,2013-07-27 22:04:00,
2013-07-27 18:10:00,68.8,67.3,29.88,NE,48,0.0,0.0,95,0.00,,,0.45,Wunderground v.1.15,2013-07-27 22:10:00,
2013-07-27 18:15:00,68.8,67.3,29.88,NE,48,0.0,0.0,95,0.00,,,0.45,Wunderground v.1.15,2013-07-27 22:15:00,
2013-07-27 18:20:00,69.0,67.8,29.89,NE,53,0.0,0.0,96,0.00,,,0.45,Wunderground v.1.15,2013-07-27 22:20:00,
2013-07-27 18:26:00,69.0,67.8,29.89,NE,53,0.0,0.0,96,0.00,,,0.45,Wunderground v.1.15,2013-07-27 22:26:00,
2013-07-27 18:31:00,69.1,67.9,29.89,NE,53,0.0,0.0,96,0.00,,,0.45,Wunderground v.1.15,2013-07-27 22:31:00,
2013-07-27 18:36:00,69.1,67.9,29.89,NE,53,0.0,0.0,96,0.00,,,0.46,Wunderground v.1.15,2013-07-27 22:36:00,
2013-07-27 18:41:00,69.3,68.1,29.89,NE,53,0.0,0.0,96,0.00,,,0.46,Wunderground v.1.15,2013-07-27 22:41:00,
2013-07-27 18:46:00,69.4,68.2,29.89,NE,53,0.0,1.0,96,0.00,,,0.46,Wunderground v.1.15,2013-07-27 22:46:00,
2013-07-27 18:52:00,69.5,68.3,29.89,NE,53,0.0,0.0,96,0.00,,,0.46,Wunderground v.1.15,2013-07-27 22:52:00,
2013-07-27 18:57:00,69.6,68.4,29.89,NE,53,0.0,1.0,96,0.00,,,0.46,Wunderground v.1.15,2013-07-27 22:57:00,
2013-07-27 19:02:00,69.7,68.5,29.89,NE,53,0.0,0.0,96,0.00,,,0.46,Wunderground v.1.15,2013-07-27 23:02:00,
2013-07-27 19:08:00,69.7,68.5,29.89,NE,53,0.0,0.0,96,0.00,,,0.46,Wunderground v.1.15,2013-07-27 23:08:00,
2013-07-27 19:13:00,69.6,68.4,29.90,NE,53,0.0,0.0,96,0.00,,,0.46,Wunderground v.1.15,2013-07-27 23:13:00,
2013-07-27 19:18:00,69.5,68.0,29.90,NE,53,0.0,0.0,95,0.00,,,0.46,Wunderground v.1.15,2013-07-27 23:18:00,
2013-07-27 19:24:00,69.4,67.9,29.90,NE,53,0.0,0.0,95,0.00,,,0.46,Wunderground v.1.15,2013-07-27 23:24:00,
2013-07-27 19:29:00,69.2,67.7,29.90,NE,54,0.0,0.0,95,0.00,,,0.46,Wunderground v.1.15,2013-07-27 23:29:00,
2013-07-27 19:34:00,69.2,67.7,29.90,NE,54,0.0,0.0,95,0.00,,,0.46,Wunderground v.1.15,2013-07-27 23:34:00,
2013-07-27 19:40:00,69.1,67.9,29.90,NE,54,0.0,0.0,96,0.00,,,0.46,Wunderground v.1.15,2013-07-27 23:40:00,
2013-07-27 19:46:00,69.1,67.9,29.91,NE,54,0.0,0.0,96,0.00,,,0.46,Wunderground v.1.15,2013-07-27 23:46:00,
2013-07-27 19:51:00,69.0,67.8,29.90,NE,54,0.0,0.0,96,0.00,,,0.46,Wunderground v.1.15,2013-07-27 23:51:00,
2013-07-27 19:57:00,68.9,67.7,29.91,NE,54,0.0,0.0,96,0.00,,,0.46,Wunderground v.1.15,2013-07-27 23:57:00,
2013-07-27 20:05:00,68.9,67.7,29.91,NE,54,0.0,0.0,96,0.00,,,0.46,Wunderground v.1.15,2013-07-28 00:05:00,
2013-07-27 20:10:00,68.9,67.7,29.91,NE,54,0.0,0.0,96,0.00,,,0.46,Wunderground v.1.15,2013-07-28 00:10:00,
2013-07-27 20:15:00,68.8,67.6,29.91,NE,54,0.0,0.0,96,0.00,,,0.46,Wunderground v.1.15,2013-07-28 00:15:00,
2013-07-27 20:21:00,68.8,67.6,29.91,NE,54,0.0,0.0,96,0.00,,,0.46,Wunderground v.1.15,2013-07-28 00:21:00,
2013-07-27 20:26:00,68.7,67.5,29.90,NE,54,0.0,0.0,96,0.00,,,0.46,Wunderground v.1.15,2013-07-28 00:26:00,
2013-07-27 20:31:00,68.6,67.4,29.90,NE,54,0.0,0.0,96,0.00,,,0.46,Wunderground v.1.15,2013-07-28 00:31:00,
2013-07-27 20:36:00,68.6,67.4,29.89,NE,54,0.0,0.0,96,0.00,,,0.46,Wunderground v.1.15,2013-07-28 00:36:00,
2013-07-27 20:42:00,68.6,67.4,29.89,NE,54,0.0,0.0,96,0.00,,,0.46,Wunderground v.1.15,2013-07-28 00:42:00,
2013-07-27 20:48:00,68.6,67.4,29.90,NE,54,0.0,0.0,96,0.00,,,0.46,Wunderground v.1.15,2013-07-28 00:48:00,
2013-07-27 20:53:00,68.6,67.7,29.90,NE,54,0.0,0.0,97,0.00,,,0.46,Wunderground v.1.15,2013-07-28 00:53:00,
2013-07-27 20:58:00,68.6,67.7,29.90,NE,54,0.0,0.0,97,0.00,,,0.46,Wunderground v.1.15,2013-07-28 00:58:00,
2013-07-27 21:04:00,68.6,67.7,29.90,NE,54,0.0,0.0,97,0.00,,,0.46,Wunderground v.1.15,2013-07-28 01:04:00,
2013-07-27 21:10:00,68.6,67.7,29.90,NE,54,0.0,0.0,97,0.00,,,0.46,Wunderground v.1.15,2013-07-28 01:10:00,
2013-07-27 21:15:00,68.6,68.0,29.90,NE,54,0.0,0.0,97,0.00,,,0.46,weatherlink.com 1.10,2013-07-28 01:15:00,
2013-07-27 21:21:00,68.6,67.7,29.90,NE,54,0.0,0.0,97,0.00,,,0.46,Wunderground v.1.15,2013-07-28 01:21:00,
2013-07-27 21:26:00,68.6,67.7,29.90,NE,54,0.0,0.0,97,0.00,,,0.46,Wunderground v.1.15,2013-07-28 01:26:00,
2013-07-27 21:31:00,68.7,67.8,29.90,NE,54,0.0,0.0,97,0.00,,,0.46,Wunderground v.1.15,2013-07-28 01:31:00,
2013-07-27 21:37:00,68.7,67.8,29.90,NE,54,0.0,0.0,97,0.00,,,0.46,Wunderground v.1.15,2013-07-28 01:37:00,
2013-07-27 21:42:00,68.7,67.8,29.90,NE,54,0.0,0.0,97,0.00,,,0.46,Wunderground v.1.15,2013-07-28 01:42:00,
2013-07-27 21:47:00,68.7,67.8,29.90,NE,54,0.0,0.0,97,0.00,,,0.46,Wunderground v.1.15,2013-07-28 01:47:00,
2013-07-27 21:53:00,68.7,67.8,29.90,NE,54,0.0,0.0,97,0.00,,,0.46,Wunderground v.1.15,2013-07-28 01:53:00,
2013-07-27 22:10:00,68.6,68.0,29.90,NE,54,0.0,0.0,97,0.00,,,0.46,weatherlink.com 1.10,2013-07-28 02:10:00,
2013-07-27 22:16:00,68.6,67.7,29.90,NE,54,0.0,0.0,97,0.00,,,0.46,Wunderground v.1.15,2013-07-28 02:16:00,
2013-07-27 22:22:00,68.6,67.7,29.91,NE,54,0.0,0.0,97,0.00,,,0.46,Wunderground v.1.15,2013-07-28 02:22:00,
2013-07-27 22:27:00,68.5,67.6,29.90,NE,54,0.0,0.0,97,0.00,,,0.46,Wunderground v.1.15,2013-07-28 02:27:00,
2013-07-27 22:32:00,68.5,67.6,29.90,NE,54,0.0,0.0,97,0.00,,,0.46,Wunderground v.1.15,2013-07-28 02:32:00,
2013-07-27 22:37:00,68.5,67.6,29.90,NE,54,0.0,1.0,97,0.00,,,0.46,Wunderground v.1.15,2013-07-28 02:37:00,
2013-07-27 22:43:00,68.5,67.6,29.90,NE,54,0.0,0.0,97,0.00,,,0.46,Wunderground v.1.15,2013-07-28 02:43:00,
2013-07-27 22:48:00,68.5,67.6,29.90,NE,54,0.0,0.0,97,0.00,,,0.46,Wunderground v.1.15,2013-07-28 02:48:00,
2013-07-27 22:54:00,68.3,67.4,29.89,NE,54,0.0,0.0,97,0.00,,,0.46,Wunderground v.1.15,2013-07-28 02:54:00,
2013-07-27 22:59:00,68.2,67.3,29.89,NE,54,0.0,0.0,97,0.00,,,0.46,Wunderground v.1.15,2013-07-28 02:59:00,
2013-07-27 23:04:00,68.2,67.3,29.89,NE,54,0.0,0.0,97,0.00,,,0.46,Wunderground v.1.15,2013-07-28 03:04:00,
2013-07-27 23:10:00,68.1,67.2,29.90,NE,54,0.0,0.0,97,0.00,,,0.46,Wunderground v.1.15,2013-07-28 03:10:00,
2013-07-27 23:16:00,68.0,67.0,29.89,NE,54,0.0,0.0,97,0.00,,,0.46,weatherlink.com 1.10,2013-07-28 03:16:00,
2013-07-27 23:21:00,68.0,67.1,29.90,NE,54,0.0,0.0,97,0.00,,,0.46,Wunderground v.1.15,2013-07-28 03:21:00,
2013-07-27 23:26:00,68.0,67.1,29.89,NE,54,0.0,0.0,97,0.00,,,0.46,Wunderground v.1.15,2013-07-28 03:26:00,
2013-07-27 23:32:00,67.9,67.0,29.89,NE,54,0.0,0.0,97,0.00,,,0.46,Wunderground v.1.15,2013-07-28 03:32:00,
2013-07-27 23:37:00,67.9,67.0,29.89,NE,54,0.0,0.0,97,0.00,,,0.46,Wunderground v.1.15,2013-07-28 03:37:00,
2013-07-27 23:42:00,67.9,67.0,29.89,NE,54,0.0,0.0,97,0.00,,,0.46,Wunderground v.1.15,2013-07-28 03:42:00,
2013-07-27 23:48:00,67.8,66.9,29.89,NE,54,0.0,0.0,97,0.00,,,0.46,Wunderground v.1.15,2013-07-28 03:48:00,
2013-07-27 23:54:00,67.7,66.8,29.89,NE,54,0.0,0.0,97,0.00,,,0.46,Wunderground v.1.15,2013-07-28 03:54:00,